STARLINK-35499

Last updated on Tue Dec 16 2025 00:02:05 GMT+0000 (Coordinated Universal Time)

1 66462U 25262G 25349.22741881 .00049205 00000+0 11752-2 0 9994 2 66462 43.0003 57.0973 0001653 266.2328 93.8340 15.40760320 5944
UTC large
Height (km)
Speed (km/s)
/
Latitude / Longitude
Inclination (degrees)
Orbital Period (minutes)
Azimuth
Elevation
Range (km)
Doppler Factor

Next 0 passes for location: London (51.5072 / 0.1276)

Sorry there are no passes over London.